Theta_e
310 310 310 310 310 310 310 310 310 310 310 311 311 311 311 311 312 312 312 312 313 313 313 314 314 314 315 314 314 315 315 315 315 315 316 315 313 313 314 315 316 315 316 316 316 317 317 315 315 315 315 316 316 316 316 317 319 321 325 324 321 325 325 324 326 319 317 324 320 315 314 314 316 316 315 316 316 316 316 315 316 316 317 317 317 317 317 317
310 310 310 310 310 310 310 310 310 310 310 310 311 311 312 312 312 313 313 313 313 314 314 314 314 315 315 315 315 315 315 315 316 316 316 316 315 314 314 314 315 315 315 316 315 316 316 315 315 315 316 316 315 317 317 317 318 323 326 321 323 328 321 317 319 314 314 318 316 315 315 313 315 315 314 315 316 315 315 314 314 316 316 316 317 317 317 317
309 309 310 310 310 310 309 310 310 310 310 310 311 311 312 312 312 313 313 313 314 314 314 314 314 315 315 315 315 315 315 315 316 317 315 315 316 315 314 314 314 315 315 315 315 315 315 315 315 315 316 315 316 317 318 318 319 320 320 324 330 324 315 313 314 314 315 316 313 314 315 312 314 314 313 314 314 314 315 314 313 314 316 316 316 316 316 316
309 309 309 310 310 310 310 310 310 310 310 310 310 311 311 312 312 313 313 313 314 314 314 314 314 314 315 315 315 315 314 315 316 317 316 315 316 315 315 314 314 315 315 315 315 315 314 315 315 315 315 315 315 317 318 319 320 318 319 328 328 316 315 317 315 316 316 315 313 313 314 312 314 315 313 313 315 316 316 314 315 315 316 316 316 316 316 316
309 310 310 310 310 310 310 310 310 310 310 310 310 311 311 311 312 312 312 313 313 314 314 314 314 314 314 314 314 314 314 316 317 316 315 315 317 316 315 315 315 315 316 315 315 314 314 315 315 314 315 315 315 317 318 317 318 318 319 322 319 313 317 318 316 317 317 315 314 312 314 315 315 314 314 313 315 317 316 316 316 316 316 316 315 315 315 315
310 310 310 310 310 310 310 310 310 310 310 310 310 311 311 311 311 312 312 313 313 313 313 313 314 314 314 314 314 314 314 316 316 315 315 315 317 316 315 315 315 315 316 315 315 314 314 315 315 315 314 314 315 317 317 317 317 319 319 316 317 316 316 317 317 317 316 315 314 313 316 315 313 314 314 313 314 317 316 316 316 316 316 315 315 315 315 315
310 310 310 310 310 310 310 310 311 311 311 311 311 311 311 311 311 311 312 312 312 313 313 313 313 313 314 313 314 314 313 315 315 315 315 315 317 316 315 315 315 315 315 316 316 315 314 315 316 315 315 314 315 316 316 316 316 319 320 315 316 317 315 317 317 316 317 316 315 316 315 313 313 315 314 312 314 316 316 316 316 316 315 315 315 315 315 315
311 311 311 311 311 311 311 311 311 311 311 311 311 311 311 311 311 311 311 312 312 312 312 312 313 312 313 313 314 313 313 314 315 315 315 315 316 315 315 315 315 315 315 315 316 316 314 315 316 315 315 315 314 315 314 315 315 318 320 316 315 316 316 317 316 316 316 316 316 315 313 314 314 313 312 312 315 316 316 316 316 315 315 315 314 315 315 315
312 312 312 312 312 312 312 313 312 313 313 312 313 313 313 313 312 312 312 312 312 312 312 312 312 313 313 314 313 313 314 315 315 315 315 315 315 314 315 315 315 315 315 315 316 316 314 314 315 315 315 314 314 314 313 315 317 317 317 316 314 315 315 315 315 314 315 314 314 313 312 314 313 313 312 313 315 316 316 315 315 315 315 315 314 314 315 315
313 313 313 313 313 313 313 313 313 313 313 313 314 313 314 314 314 314 314 314 314 314 314 313 314 314 314 314 313 313 315 316 316 316 315 315 315 315 315 315 315 314 315 315 315 315 314 313 313 314 314 314 313 313 312 315 316 314 313 313 312 313 313 312 312 312 313 312 312 312 314 314 312 312 313 314 315 315 315 315 315 315 314 315 315 314 315 314
316 316 315 315 315 314 314 314 314 315 315 315 315 314 314 314 313 313 314 314 314 314 315 315 315 314 314 314 312 313 316 316 316 316 315 316 316 316 315 315 315 314 315 315 315 314 313 313 312 313 315 314 313 312 312 313 314 312 311 312 312 311 311 311 311 311 311 312 311 312 313 312 311 311 313 314 315 314 314 315 314 315 315 315 315 316 316 316
319 319 318 318 318 318 318 318 318 318 319 319 319 318 318 317 316 315 314 313 313 312 312 313 313 313 313 312 312 314 316 315 316 316 316 316 316 316 315 315 315 314 315 315 314 314 312 312 311 312 314 313 313 312 312 313 312 312 312 314 314 312 312 312 311 311 310 312 311 310 312 314 314 313 315 314 315 314 313 314 314 314 315 315 316 316 316 316
317 318 318 319 319 319 320 320 321 321 322 322 322 323 322 322 321 320 319 317 315 313 312 311 312 312 312 311 313 315 315 315 315 315 315 316 315 315 315 314 314 314 314 314 314 313 312 312 310 312 313 313 314 313 312 311 311 313 312 313 313 313 314 311 311 310 309 311 311 311 312 316 316 313 314 314 314 313 312 313 314 314 315 316 316 316 316 316
313 313 314 315 315 316 317 318 318 319 319 320 320 322 322 323 323 324 323 322 322 319 317 316 314 314 313 312 313 313 314 313 313 314 314 314 314 314 314 314 314 314 314 314 314 313 312 312 310 312 312 314 314 312 313 313 314 315 311 312 314 314 316 312 309 309 310 311 310 312 312 314 314 312 313 314 313 312 312 312 314 315 315 315 315 316 316 315
311 311 311 312 312 312 313 313 313 314 314 314 315 315 316 317 318 319 319 320 321 320 320 319 318 317 313 313 314 313 313 313 314 314 314 314 314 313 313 314 313 313 314 314 314 313 312 312 312 313 313 313 313 314 317 318 323 321 312 315 318 314 316 313 309 309 311 312 308 311 314 313 313 312 313 314 313 311 311 312 314 314 314 314 315 315 315 315
313 312 312 312 313 312 313 313 313 313 313 313 313 313 313 313 313 313 314 314 314 315 316 316 317 316 314 315 316 315 315 315 314 314 314 314 314 314 313 313 314 314 314 313 313 312 312 313 313 313 312 313 314 317 319 318 324 323 314 315 318 315 314 313 312 309 309 312 309 310 313 313 314 313 313 314 313 311 310 311 312 313 314 314 313 314 314 314
315 315 315 315 315 315 315 315 315 314 314 314 313 313 313 312 313 313 312 312 311 311 311 313 313 313 314 315 316 316 316 316 315 314 314 313 314 315 315 314 314 314 313 313 313 312 312 312 312 314 313 312 314 318 318 315 318 320 315 315 316 315 313 313 315 310 306 310 312 312 311 311 312 311 311 312 312 311 309 310 310 312 312 313 313 312 313 313
315 316 316 317 317 318 318 317 317 317 316 315 314 313 312 312 312 312 313 313 312 311 310 312 312 313 316 316 315 316 316 315 314 314 314 313 314 314 315 315 314 314 313 312 312 311 312 310 311 316 315 313 314 315 316 316 316 317 316 315 314 314 312 312 314 311 310 311 312 312 311 310 311 310 309 311 311 310 309 310 310 310 311 311 312 311 312 313
318 317 316 316 317 317 318 319 319 319 318 317 315 314 313 312 312 313 314 314 313 314 314 314 313 316 317 316 315 315 314 314 313 313 314 314 314 314 315 314 313 313 312 313 313 310 311 311 312 316 316 314 313 313 314 314 314 314 314 313 312 312 312 312 311 310 310 311 310 311 310 310 310 310 309 310 311 310 309 310 310 310 311 311 311 311 312 312
322 321 319 318 317 317 316 317 319 319 319 318 317 315 313 312 313 313 313 313 313 314 315 314 314 315 316 315 315 315 314 314 314 313 314 314 314 314 314 313 313 312 311 316 317 310 309 313 314 315 315 314 313 312 312 312 312 312 311 312 312 311 310 310 311 309 308 309 311 311 311 310 310 310 309 309 310 309 308 309 310 310 310 310 311 312 312 313
325 324 323 322 321 320 318 317 318 319 319 320 319 318 314 311 312 313 312 314 315 314 314 314 313 313 314 314 314 314 314 313 314 314 314 314 314 314 314 312 313 313 311 313 314 310 310 313 314 315 314 312 313 312 311 311 311 311 312 312 311 311 310 310 311 310 309 309 311 312 311 310 310 311 310 309 310 310 310 309 309 311 311 311 311 312 313 313
325 325 324 324 324 324 322 320 320 320 320 320 321 321 317 312 313 313 311 312 316 317 317 317 315 314 315 314 313 313 313 313 313 313 314 314 314 314 313 314 316 316 313 311 312 312 312 313 313 312 310 311 312 311 310 311 311 312 312 312 312 311 311 311 311 311 310 310 313 314 311 310 310 311 310 310 310 310 311 310 310 311 311 311 312 312 312 313
325 325 325 325 325 325 325 324 323 321 320 321 322 322 320 316 314 313 312 311 314 319 320 319 317 315 316 315 313 312 312 312 312 312 314 313 314 314 312 314 316 317 315 314 314 314 316 318 314 309 308 311 312 311 311 312 312 312 312 312 312 311 311 312 313 315 313 310 312 313 310 310 310 311 310 310 309 310 311 311 311 311 311 312 313 313 312 312
326 326 325 325 325 324 324 324 324 323 322 323 323 323 321 318 316 315 313 312 313 317 319 318 315 314 315 314 313 312 311 311 311 311 313 313 313 313 312 313 315 316 314 313 314 313 316 317 310 309 311 311 312 311 312 313 312 312 312 312 312 312 312 311 312 315 313 313 314 312 310 313 314 313 313 312 309 309 309 309 310 311 313 314 313 312 314 314
325 325 326 325 324 323 323 323 323 323 323 323 323 323 322 319 317 315 313 315 318 317 315 315 313 313 313 312 312 312 310 311 311 310 312 312 313 313 312 311 314 316 314 312 313 313 313 312 308 312 314 311 312 313 314 314 312 312 313 313 312 312 312 312 313 312 313 317 316 312 312 316 316 315 317 318 315 313 311 310 310 311 313 312 310 313 316 316
323 323 323 323 323 323 323 323 323 323 323 324 323 322 322 320 318 316 313 318 324 321 314 313 313 312 311 311 311 311 312 313 311 311 311 312 313 312 312 311 311 314 314 312 311 311 313 311 309 313 314 312 312 313 315 314 311 313 316 317 314 312 312 313 312 312 316 319 313 311 315 315 314 315 318 319 319 319 316 315 312 310 311 310 311 314 316 316
321 321 323 324 324 324 324 323 323 323 323 323 323 322 322 321 318 315 315 322 326 320 314 313 312 311 311 310 310 311 315 315 311 311 311 311 312 311 312 312 310 311 310 309 312 313 314 311 310 311 312 314 313 313 315 312 312 315 314 317 318 315 314 313 312 312 315 316 312 313 315 314 314 314 316 317 317 318 316 315 312 309 309 310 312 315 316 316
321 321 324 325 324 325 325 324 324 323 323 323 322 322 321 320 318 316 321 329 328 317 314 312 310 312 311 310 310 309 311 310 310 312 311 311 312 310 312 312 312 313 308 309 315 313 312 314 314 313 313 315 315 315 315 312 313 316 312 313 316 314 314 312 313 315 313 313 314 313 312 316 317 314 315 315 315 318 315 314 313 310 309 310 313 316 316 316
321 321 323 325 324 324 324 324 324 323 323 322 322 323 321 319 316 316 323 328 324 317 314 312 311 311 311 310 310 309 309 309 309 311 310 312 312 310 312 310 310 313 309 308 314 311 310 312 312 315 316 315 316 316 317 316 315 313 310 312 315 316 315 313 314 315 315 315 315 314 314 316 318 317 318 314 314 319 317 314 313 309 309 311 314 315 315 315
319 320 322 323 323 324 323 324 323 322 323 322 322 323 322 320 316 319 325 325 322 319 313 311 312 310 310 312 312 309 309 310 309 310 310 310 311 309 310 309 308 312 312 310 313 311 309 307 307 312 313 312 315 312 310 313 311 307 311 315 317 318 316 315 316 316 316 317 316 317 316 314 317 319 319 318 318 319 317 317 318 314 311 312 314 315 314 315
317 318 320 321 322 322 322 324 323 322 322 322 323 322 322 323 321 324 327 322 320 321 313 311 312 311 312 314 314 312 310 309 308 310 311 310 311 310 309 310 309 313 316 313 314 311 308 308 309 311 309 308 312 311 306 306 305 308 316 317 315 317 316 317 319 316 315 319 318 317 315 313 317 317 316 318 317 315 315 318 323 321 314 312 315 315 314 315
315 316 318 320 321 321 322 323 323 322 323 322 322 321 321 324 323 324 325 321 322 322 315 314 313 314 315 313 315 316 312 311 308 309 313 313 314 313 312 315 315 318 322 320 319 317 314 313 311 310 309 307 311 313 311 308 307 310 316 314 313 317 317 317 318 315 316 318 314 312 312 312 314 314 314 316 314 314 313 312 316 316 311 311 314 315 314 315
314 315 316 319 322 322 322 323 323 322 322 322 321 319 321 324 323 324 325 323 321 319 315 316 314 314 315 315 321 319 312 314 312 309 313 312 313 315 315 316 315 317 321 319 319 320 319 317 310 309 310 309 310 314 315 314 312 310 313 314 316 317 317 318 319 316 317 317 311 309 312 313 315 316 317 316 313 312 309 308 309 310 308 310 312 313 314 314
314 314 315 318 321 322 322 323 323 321 321 321 320 319 322 324 322 323 325 324 322 321 318 318 316 315 315 318 325 321 315 320 316 310 313 312 312 318 319 315 311 313 315 314 316 318 319 320 317 314 314 312 310 311 316 320 314 310 313 316 316 319 320 321 321 319 318 318 311 307 312 318 318 317 318 316 311 307 308 309 309 309 309 309 310 311 313 312
314 313 314 315 317 320 321 322 322 320 321 320 318 320 323 323 322 323 324 324 326 325 320 317 318 320 319 320 322 318 316 322 318 312 314 314 316 322 323 319 314 312 314 315 317 316 315 320 321 313 309 310 311 310 314 319 316 311 313 315 314 318 323 320 319 319 317 316 313 310 315 319 317 314 315 314 310 307 307 306 306 308 309 308 310 312 311 311
313 313 313 313 314 316 318 321 321 319 319 319 319 321 322 321 322 324 322 320 322 324 321 319 319 321 323 322 322 316 313 317 316 314 315 315 318 320 321 322 317 312 312 317 320 319 316 319 318 310 307 309 310 309 309 313 316 313 312 314 313 315 319 318 317 317 314 314 315 315 317 317 316 317 315 315 315 314 313 310 305 304 307 309 311 311 311 311
312 312 313 313 313 314 315 318 320 319 318 317 319 321 321 319 321 323 321 316 317 319 320 321 321 322 325 324 322 317 313 315 315 314 317 317 316 318 318 318 314 310 312 315 318 320 318 318 317 314 314 310 304 306 308 307 310 314 315 314 312 312 315 315 316 317 314 314 316 316 317 316 317 319 317 317 319 318 318 317 309 305 307 309 310 310 311 311
310 310 311 312 312 313 314 316 319 319 317 317 319 320 321 319 317 318 318 315 315 318 319 321 321 322 325 324 322 320 316 317 316 315 319 319 317 318 318 316 312 309 309 310 314 319 317 317 318 316 316 311 304 307 312 307 306 311 314 312 312 314 315 315 316 317 315 316 317 318 317 315 316 317 316 315 316 317 318 318 314 311 308 307 308 311 312 312
308 308 309 311 312 312 312 315 317 317 316 317 320 320 320 319 316 316 317 316 316 318 319 321 321 321 323 321 321 321 318 318 317 315 317 319 317 315 315 315 313 308 306 308 313 317 315 317 319 314 312 312 310 312 316 314 308 307 309 310 312 313 313 314 316 317 316 316 317 318 318 317 316 315 315 314 314 318 317 314 315 314 308 307 310 313 313 313
304 307 309 311 313 312 312 315 316 316 316 318 319 318 318 318 316 316 317 316 316 318 319 321 321 320 320 320 319 321 319 319 319 318 318 320 319 317 315 315 314 311 308 308 311 314 314 316 318 316 315 314 314 315 318 318 315 311 311 312 311 311 313 315 314 315 316 316 317 318 318 318 318 317 317 314 315 317 314 311 313 311 308 310 312 312 312 311
303 307 310 311 312 312 313 315 316 314 316 317 317 316 316 316 315 315 316 316 315 316 317 319 321 319 318 319 319 319 319 320 321 319 319 321 320 319 317 313 312 314 313 311 312 314 315 316 317 319 319 315 316 318 319 320 319 316 314 314 313 312 315 316 315 315 315 314 316 317 316 318 320 322 320 315 314 316 313 312 312 308 307 310 311 310 309 307
304 308 310 310 312 313 313 315 315 314 315 316 316 316 315 315 316 315 315 314 315 315 314 316 318 317 316 317 317 318 318 319 320 319 319 319 319 318 317 312 311 314 316 317 318 316 315 315 316 317 318 317 317 318 316 316 316 315 314 314 314 313 313 315 316 316 315 314 314 315 316 318 320 320 318 315 314 313 311 311 311 309 307 307 306 306 305 303
305 308 310 310 311 313 314 315 315 315 315 315 315 315 315 315 315 315 314 314 314 314 314 315 316 316 316 316 316 317 318 318 318 318 318 318 317 316 314 312 311 313 315 318 318 314 312 313 315 315 316 317 316 316 314 312 312 314 314 314 313 313 313 314 314 314 315 315 315 316 316 318 322 321 317 315 313 311 311 310 308 306 303 301 301 301 301 301
304 305 306 310 313 314 314 315 315 316 315 314 314 315 315 314 314 314 314 314 315 315 315 315 314 314 316 316 316 316 317 317 316 316 317 317 316 313 310 310 312 312 313 314 315 314 312 314 315 316 316 316 316 316 313 311 312 314 314 314 313 312 313 313 313 313 314 314 315 316 315 317 323 324 318 316 315 313 312 307 302 300 299 298 298 298 297 298
302 302 302 305 311 313 313 313 314 314 314 314 314 314 314 314 313 314 314 313 313 313 314 314 313 312 313 313 314 314 314 315 315 315 315 316 315 310 307 309 310 310 310 310 310 312 313 313 314 315 316 316 315 314 312 313 314 312 312 313 312 313 313 313 313 313 314 315 315 315 314 315 319 320 317 316 315 311 307 302 299 299 298 297 296 296 296 296
300 303 303 303 306 308 310 312 312 313 313 313 314 313 314 314 313 313 313 313 312 312 313 313 312 312 312 312 312 313 313 313 313 314 314 315 316 310 305 307 308 306 308 307 306 309 311 311 313 314 314 314 314 313 313 314 314 312 312 312 312 312 311 310 311 312 313 314 314 314 314 314 314 314 314 312 309 305 301 298 298 298 296 296 295 295 295 294
299 302 304 304 305 304 306 309 310 311 312 312 313 312 312 313 312 311 312 312 312 311 311 311 311 312 313 312 312 312 313 313 312 312 312 312 313 309 304 305 305 304 306 305 304 308 310 310 311 312 312 312 313 312 312 312 312 312 312 312 312 312 311 311 311 311 311 312 313 314 313 313 312 312 311 307 303 301 298 297 297 296 295 295 294 294 294 294
299 300 300 302 304 304 305 306 305 306 308 310 311 311 311 311 311 311 311 310 310 311 311 311 311 311 312 312 311 311 311 312 311 311 311 309 308 308 307 306 304 302 302 302 303 307 309 308 309 310 310 311 311 310 310 310 310 310 310 310 310 310 311 311 311 311 311 311 312 312 312 312 312 310 305 301 299 299 298 296 295 294 294 293 293 293 293 293
296 297 297 298 300 300 301 301 300 302 304 306 308 309 309 309 308 309 309 309 309 310 310 311 311 311 310 310 310 310 310 310 309 309 307 306 306 306 306 306 304 300 299 300 301 304 306 307 308 308 308 308 307 308 308 308 308 307 307 308 309 309 309 309 309 310 310 310 311 311 311 311 307 303 300 298 297 298 297 295 294 293 293 292 292 292 292 292
294 296 297 297 297 297 298 298 299 300 302 304 307 308 307 308 308 307 307 307 308 309 310 310 309 307 306 306 307 309 308 307 308 307 304 303 304 304 303 304 303 300 298 299 301 303 305 306 306 305 304 304 304 305 305 305 306 305 306 307 307 308 308 308 308 308 309 310 309 309 310 308 301 297 297 296 295 295 295 295 294 293 292 292 291 291 291 291
294 295 295 295 296 297 297 296 297 299 301 303 305 306 307 308 305 304 305 305 304 306 307 305 303 302 302 303 304 305 304 302 302 302 300 300 302 301 300 301 300 299 298 299 301 303 303 303 303 302 302 302 302 303 303 303 304 304 304 306 306 306 307 306 307 308 307 307 307 308 308 305 298 295 295 294 294 293 294 294 294 293 292 292 291 291 291 291
293 293 294 294 295 296 296 295 296 299 300 300 301 303 304 303 299 300 304 303 299 300 300 298 298 300 300 301 302 301 300 298 297 297 297 297 297 297 298 298 298 298 298 298 299 300 300 300 300 300 301 301 301 301 301 302 301 300 301 303 304 304 304 305 307 305 302 301 304 305 303 299 296 294 293 292 293 292 292 293 294 294 292 291 290 290 290 290
Wind_Speed
9 9 9 8 8 8 7 7 7 7 6 6 6 6 5 5 5 5 5 5 6 7 8 8 9 10 10 12 12 13 14 15 18 17 14 9 4 5 6 8 9 8 8 7 6 5 5 6 7 6 6 6 4 4 4 5 6 4 3 2 3 3 4 6 8 7 4 4 5 5 7 4 9 12 9 9 12 18 21 22 21 22 24 26 27 27 26 26
10 10 10 10 9 9 9 8 8 8 8 8 7 7 7 7 7 7 6 7 7 7 8 9 10 10 11 12 12 14 14 16 17 11 9 7 7 9 6 6 9 11 10 9 6 5 6 6 8 8 8 6 4 4 4 6 8 5 3 2 4 5 6 7 9 8 5 5 7 12 15 9 10 12 8 6 11 16 16 17 18 23 28 27 28 28 28 28
11 10 10 10 10 10 10 9 9 9 9 9 9 9 9 8 8 8 8 9 9 9 10 10 12 12 13 13 14 15 15 17 14 4 9 9 8 10 8 6 7 11 12 10 8 7 6 6 8 9 10 7 4 5 4 5 7 6 3 2 7 7 6 9 12 12 12 12 10 13 16 11 15 15 7 6 11 14 14 14 15 21 27 23 21 23 25 27
12 11 11 11 11 11 10 10 10 10 10 10 11 11 11 11 10 10 10 10 11 11 11 12 13 13 14 15 16 16 16 17 7 3 9 13 7 8 9 8 6 8 12 13 11 10 8 7 9 10 9 6 4 4 5 7 7 5 6 5 6 5 4 11 16 17 17 15 12 13 12 12 18 15 9 8 7 12 15 14 14 18 23 21 17 18 22 25
12 12 13 13 12 12 12 11 11 11 11 11 12 12 12 12 13 13 12 12 12 13 13 13 14 15 16 17 17 16 15 10 1 0 14 13 7 8 9 10 8 7 9 12 12 11 10 8 9 10 7 4 3 2 4 11 9 3 7 11 9 5 4 11 13 13 13 13 12 10 9 14 17 14 15 10 5 15 23 18 18 23 25 25 23 21 23 26
13 13 13 14 14 13 13 13 13 13 12 12 13 13 13 14 14 14 14 14 14 14 15 15 16 16 17 18 18 18 11 3 5 11 17 13 8 8 9 11 10 8 8 11 13 11 10 9 9 10 6 2 4 6 5 10 11 5 7 11 15 14 11 13 13 12 13 12 11 10 14 19 15 16 19 14 17 31 39 32 32 35 32 31 30 29 29 29
13 13 13 14 15 15 14 15 15 15 15 14 14 15 15 15 16 16 16 16 16 16 16 16 17 17 18 19 19 16 8 10 16 17 16 11 9 10 11 13 11 10 9 9 12 12 11 11 12 10 4 2 4 7 6 7 10 7 5 6 15 18 18 22 20 17 18 17 19 18 19 22 15 13 16 16 27 42 45 40 40 41 37 35 34 33 32 30
14 13 14 14 15 15 15 15 16 16 16 16 16 16 16 17 17 18 18 18 18 17 17 18 18 18 19 19 20 15 12 17 18 14 11 9 11 14 15 16 13 11 10 10 11 12 12 12 15 10 3 3 5 5 5 5 6 7 8 9 10 14 19 24 22 20 21 23 25 20 18 28 25 16 19 27 39 45 41 40 39 37 35 33 31 28 27 26
15 15 15 15 16 16 16 16 17 17 17 17 18 18 18 19 19 19 19 19 19 19 19 18 18 20 19 20 20 14 17 20 15 10 10 12 16 18 19 18 15 12 10 10 10 12 13 12 14 11 7 6 5 5 4 4 5 8 13 12 10 13 19 21 21 21 21 23 22 12 15 31 28 14 20 32 38 37 31 32 32 30 31 30 29 26 24 25
16 16 16 17 17 17 17 17 17 18 18 18 19 19 20 20 21 21 21 21 20 20 20 19 20 20 19 22 17 11 17 19 14 15 16 18 21 21 22 19 16 14 12 12 11 13 13 12 10 8 10 9 5 5 5 5 5 6 9 12 14 17 22 18 17 20 18 20 20 12 13 27 22 5 12 30 34 30 27 31 32 30 32 33 32 30 28 28
16 16 17 17 17 17 18 18 18 19 19 19 19 19 20 21 21 22 22 22 22 22 21 20 20 20 21 22 17 15 22 23 20 22 21 22 23 23 23 20 19 16 14 13 12 12 12 14 12 6 5 6 5 4 6 8 7 8 8 12 16 16 21 16 14 20 15 13 18 16 12 20 14 2 18 38 37 30 28 33 36 33 35 35 34 34 31 31
17 17 17 17 17 18 18 19 20 20 20 20 20 21 21 21 22 22 23 22 22 22 22 20 20 21 20 23 27 26 27 26 24 24 22 23 24 24 24 22 21 17 15 14 12 12 11 13 14 12 8 5 2 2 5 6 5 9 6 7 12 9 15 14 10 13 10 6 8 10 6 11 7 10 31 43 34 29 29 32 37 36 36 33 32 32 32 32
17 17 17 17 18 18 19 20 20 21 21 21 22 22 22 23 23 23 23 22 22 21 21 20 19 20 18 22 31 30 26 26 25 24 24 25 25 26 26 24 21 17 16 14 13 13 12 11 13 15 13 8 4 4 5 4 4 8 2 1 8 7 9 6 3 1 4 5 6 9 3 7 8 18 37 40 30 27 27 30 36 35 32 29 29 31 32 33
14 15 15 16 17 17 18 19 20 20 21 21 22 22 23 23 23 24 24 23 22 21 21 20 19 18 16 22 31 29 27 27 26 26 25 25 26 27 27 24 20 17 15 14 14 13 12 10 10 12 14 13 10 8 7 5 3 5 2 1 3 3 6 4 2 1 3 5 11 11 5 9 10 20 35 37 27 22 23 28 31 31 30 29 31 33 36 40
12 12 13 13 14 15 16 17 18 18 19 20 20 21 22 22 22 22 22 23 22 21 21 20 19 16 14 23 28 25 25 26 24 24 23 23 24 25 25 21 18 15 13 14 14 13 10 8 9 9 9 11 11 6 4 4 3 3 2 4 2 3 7 9 7 6 8 5 11 11 5 8 10 21 32 29 23 18 18 24 26 30 34 34 36 38 41 45
9 10 10 11 12 13 14 15 15 16 17 18 18 19 20 19 20 20 20 20 20 20 20 18 19 14 9 16 22 22 24 24 22 22 22 22 22 23 22 18 14 13 12 12 12 10 8 7 8 8 5 6 5 1 3 4 4 3 2 5 6 6 5 8 10 8 10 4 6 9 6 6 7 18 28 24 23 20 15 22 28 34 39 40 41 41 43 47
8 8 9 9 10 11 12 13 13 14 14 16 17 17 17 18 17 17 17 17 16 17 16 15 13 10 10 16 21 23 23 20 19 19 20 21 20 20 19 16 12 11 9 9 9 7 8 9 6 5 4 2 2 4 2 2 4 4 2 4 5 7 6 5 9 7 4 6 5 7 8 11 11 15 27 31 30 26 22 27 31 35 40 43 44 43 45 48
7 7 8 8 9 10 11 12 12 13 13 14 16 16 16 15 14 15 14 14 12 10 10 10 7 3 10 17 17 18 16 13 13 13 15 17 16 15 14 12 10 8 6 5 7 8 9 7 3 1 1 1 1 4 3 6 7 7 6 6 4 5 6 6 8 6 3 4 5 5 9 15 14 14 25 37 33 25 30 35 33 35 39 42 43 44 46 48
7 7 8 8 9 10 11 12 12 13 14 13 14 15 14 12 12 11 9 8 7 4 4 8 10 4 6 11 11 13 15 15 14 14 15 14 12 11 10 9 8 8 7 4 5 9 9 3 3 2 2 7 8 8 11 13 11 9 7 6 6 7 7 8 12 8 4 8 8 9 16 16 15 14 17 33 33 24 30 37 35 35 36 38 41 45 47 48
9 9 9 9 10 10 11 12 13 14 15 14 14 13 10 9 8 5 6 9 11 11 12 13 15 16 16 18 18 17 18 18 18 17 16 13 10 8 9 8 7 7 5 4 4 7 8 4 3 6 10 13 12 10 14 12 6 5 4 5 8 8 10 10 13 11 2 5 8 11 19 17 15 15 12 26 32 23 24 29 34 37 35 35 38 44 48 49
11 11 11 11 11 11 11 12 13 14 15 15 15 13 8 7 5 4 10 15 17 18 21 23 23 26 27 26 25 21 17 16 17 17 14 12 8 6 8 9 6 3 3 4 4 2 5 5 7 12 15 10 6 6 9 8 5 5 4 7 8 7 12 12 12 14 2 1 7 8 17 19 15 14 13 20 22 20 24 22 27 38 37 35 37 44 49 50
12 13 12 12 12 12 12 13 13 12 13 14 14 12 10 9 7 8 10 12 20 23 23 26 28 32 32 31 32 29 19 13 14 15 12 10 9 7 8 8 5 3 3 3 2 0 2 5 12 17 12 3 2 2 3 4 5 7 5 6 8 4 10 12 9 11 3 1 7 7 15 17 12 14 15 17 18 24 34 26 24 37 39 38 41 43 43 45
13 13 13 12 12 13 12 12 13 12 12 12 12 13 12 12 11 13 10 8 16 22 23 26 28 32 32 31 33 30 21 15 15 15 13 11 11 10 10 9 5 4 4 6 6 5 4 7 14 16 9 4 6 1 2 3 4 6 5 5 8 4 6 8 4 6 5 3 7 9 16 15 10 14 15 21 26 27 34 33 29 37 42 45 46 40 37 41
16 15 14 13 15 15 13 12 12 11 11 12 11 11 12 12 13 15 13 6 8 13 20 24 21 22 25 24 23 20 17 16 13 12 14 15 12 9 9 9 6 4 6 10 11 10 8 7 6 5 6 8 9 5 3 6 6 7 7 6 10 10 10 10 5 7 7 5 5 7 14 12 7 10 9 13 18 17 25 29 30 38 47 47 42 38 39 43
19 18 15 15 17 17 14 13 12 10 11 11 10 10 12 13 13 15 11 4 5 7 11 13 8 9 13 12 11 11 10 11 13 11 11 16 15 8 5 8 6 5 8 9 8 9 9 9 4 3 4 6 6 6 6 7 8 7 6 10 15 15 12 12 9 8 6 5 5 5 8 10 2 5 6 6 4 7 13 16 23 38 42 34 30 36 41 41
20 18 15 15 16 16 15 13 11 10 11 11 9 9 11 11 12 14 8 2 4 4 4 4 2 2 3 3 4 6 4 5 9 12 12 14 16 9 3 5 4 4 6 6 3 4 5 7 5 5 5 6 5 6 7 9 6 8 5 11 14 11 9 11 8 4 2 4 3 4 1 10 5 3 8 8 3 8 11 10 19 31 29 23 26 34 36 36
19 16 14 14 15 15 15 13 10 10 11 10 8 8 10 10 10 11 6 3 4 2 3 2 3 1 2 3 6 8 3 2 1 6 12 14 14 10 4 3 2 2 4 3 2 3 4 3 1 2 3 6 5 6 7 10 5 6 5 6 8 8 7 6 3 4 4 4 3 2 4 7 11 5 6 7 6 9 13 14 16 17 20 24 30 32 32 33
18 16 15 15 16 15 14 14 12 10 10 10 8 7 8 8 8 7 4 2 4 2 4 2 3 1 1 5 9 5 1 1 2 1 8 12 12 7 4 6 5 4 4 4 4 4 4 5 5 6 5 4 7 5 8 12 6 6 4 5 5 5 5 5 5 4 1 4 4 3 5 2 11 7 1 1 5 8 13 15 13 10 17 27 29 28 29 30
19 17 16 16 16 16 16 15 12 10 10 9 7 6 8 8 6 4 3 2 2 3 2 2 3 1 2 5 7 4 2 1 1 2 5 9 11 6 2 5 6 4 4 5 6 6 1 3 6 9 6 5 8 5 9 13 7 4 6 5 4 3 2 4 4 3 3 4 5 5 5 3 11 7 4 4 2 7 10 11 10 8 13 24 25 23 26 29
20 18 17 17 17 18 18 15 11 10 9 8 7 6 7 7 3 2 3 4 1 1 2 3 2 1 3 4 1 4 2 2 2 6 5 5 9 6 1 2 2 2 3 3 6 8 4 1 2 4 6 6 5 3 4 9 6 4 6 4 5 4 4 4 1 3 3 6 6 10 11 6 7 5 4 3 4 6 6 7 9 7 9 17 18 19 27 29
20 19 18 18 18 19 18 15 12 12 10 8 6 5 4 4 2 3 7 2 1 1 2 2 1 2 4 3 1 2 2 2 3 6 3 3 4 3 0 1 1 2 3 4 5 7 3 2 1 5 9 6 5 3 2 1 4 4 4 3 3 4 4 5 4 3 2 7 5 10 12 9 7 5 1 4 6 6 6 5 8 8 9 14 16 23 30 29
21 20 19 19 19 19 19 16 11 11 11 8 6 3 2 2 1 6 5 3 2 2 2 1 1 2 3 2 2 3 1 2 3 5 3 3 3 3 3 4 3 1 4 2 3 5 2 5 4 2 6 8 6 1 3 3 4 4 3 3 2 4 3 3 3 1 4 8 4 6 7 5 11 8 3 9 13 10 7 8 10 10 12 18 22 28 30 27
20 21 20 20 20 20 20 18 13 10 9 8 5 0 3 2 6 4 2 1 2 1 1 1 1 2 3 1 2 4 2 2 4 4 3 3 2 3 5 5 5 2 5 2 2 4 3 4 3 2 4 9 10 5 3 2 4 5 5 5 3 2 1 3 3 2 5 6 3 3 5 3 9 7 6 12 13 9 5 9 13 15 18 21 23 25 24 24
20 20 20 20 22 22 19 18 16 11 9 8 5 3 1 8 7 2 2 5 3 2 1 2 3 1 2 2 4 3 2 3 4 4 2 3 1 3 4 5 5 3 2 1 2 2 4 7 4 5 3 9 12 8 5 5 5 6 5 5 4 5 4 5 4 4 6 4 2 1 4 4 5 3 6 10 9 10 11 12 14 17 19 18 17 17 18 19
21 20 20 20 22 23 21 19 17 13 12 10 5 2 5 9 5 0 3 5 2 3 3 1 3 1 3 3 4 3 5 5 2 4 3 3 3 4 3 4 6 5 3 2 2 2 4 8 6 2 1 10 9 5 5 7 2 3 3 4 3 5 5 3 6 6 4 2 2 2 4 5 5 6 7 6 7 11 14 14 14 17 16 11 10 12 15 16
23 22 22 22 22 21 20 21 19 15 15 12 4 4 9 7 3 3 3 2 2 2 1 2 2 2 4 3 3 3 4 3 0 2 3 3 3 5 4 3 7 9 7 5 2 2 3 6 3 2 0 7 7 2 3 4 2 1 3 3 3 4 5 2 6 4 2 5 6 6 7 5 4 10 8 4 4 6 8 9 9 10 6 3 7 13 16 15
22 22 23 25 22 16 16 20 19 18 18 12 5 8 7 4 6 6 3 2 2 2 2 3 4 4 4 3 2 2 0 1 1 2 2 2 3 4 4 4 6 11 13 9 4 3 4 6 5 4 4 6 3 1 1 1 3 5 4 4 1 2 3 2 2 2 3 8 7 7 12 9 4 8 6 7 8 8 8 7 6 8 7 7 10 16 18 21
21 20 23 25 22 16 15 16 17 20 17 8 8 11 5 3 6 6 4 3 1 1 2 4 4 3 3 3 3 2 3 2 1 1 2 2 3 4 5 4 5 9 12 10 3 3 2 5 7 3 4 3 2 2 2 3 2 4 3 2 2 2 2 1 2 2 6 9 5 5 11 9 6 9 9 11 13 9 7 7 7 7 7 9 18 27 33 35
17 16 17 16 14 15 17 16 18 21 13 4 9 10 4 5 7 7 8 5 1 1 2 4 4 2 3 3 3 2 3 4 2 2 3 3 4 4 4 2 2 3 6 7 3 2 1 3 5 1 1 1 3 1 3 1 2 1 1 2 1 3 3 2 2 2 4 8 7 5 7 6 7 8 11 16 12 5 5 6 7 8 10 16 23 31 36 39
11 8 8 6 5 11 18 19 20 19 8 4 9 7 2 3 6 10 13 8 3 3 4 3 4 4 5 4 3 3 2 3 3 3 3 2 4 4 3 2 2 1 2 4 4 1 2 3 5 2 2 1 1 3 6 4 2 2 0 2 2 2 1 2 2 1 2 5 6 6 7 6 5 5 10 15 8 5 6 4 6 8 13 20 25 29 32 32
8 4 4 6 6 11 21 20 14 11 4 5 9 7 5 5 4 5 9 10 8 7 5 4 4 5 4 4 4 2 1 3 4 4 4 4 5 4 2 1 4 2 2 2 3 2 2 3 4 3 3 3 5 5 6 7 6 5 4 5 5 5 3 4 5 3 3 4 5 7 8 6 4 4 8 11 7 5 5 4 6 9 13 17 21 24 24 24
9 3 2 7 8 14 23 14 7 6 5 6 7 7 6 6 4 3 5 8 7 5 5 4 5 5 3 5 6 3 2 4 4 5 5 5 6 6 5 2 4 5 4 2 4 3 3 1 2 5 6 7 11 10 6 7 4 2 3 4 4 4 4 6 8 5 4 6 6 8 9 5 4 6 9 12 11 10 11 10 9 13 17 17 18 19 20 21
9 6 4 6 7 17 19 7 5 7 4 5 8 8 7 5 3 3 3 4 4 3 4 3 3 6 6 5 6 4 4 5 6 7 6 5 7 7 6 4 2 4 2 1 3 1 3 2 2 6 6 6 10 11 4 2 3 0 3 3 3 5 6 9 8 4 5 7 6 8 9 4 4 7 9 9 12 16 19 16 15 18 23 27 27 27 27 27
6 10 9 6 9 20 16 4 6 8 5 6 7 9 11 8 6 8 6 3 4 3 3 3 4 5 5 4 5 5 5 5 6 8 6 5 5 3 5 6 4 1 1 1 2 1 0 2 2 3 4 4 6 7 5 2 1 2 4 5 5 7 10 10 6 5 6 8 10 11 9 5 3 4 6 7 9 12 14 20 25 21 22 26 28 30 31 31
2 7 10 10 15 19 13 6 6 5 5 8 8 8 10 7 8 13 10 5 7 4 2 3 4 3 3 3 3 4 5 5 5 4 2 3 3 4 10 11 7 3 2 3 2 0 1 3 3 4 6 6 7 7 5 2 1 2 2 4 5 6 9 8 6 6 7 8 11 11 10 7 4 4 6 7 8 9 12 21 25 22 23 26 27 30 31 33
1 2 4 7 14 17 15 12 8 3 4 7 6 6 9 9 6 8 7 6 9 9 7 7 6 3 3 4 5 6 7 7 6 4 3 3 3 2 7 8 7 5 3 5 6 2 1 2 5 9 10 10 10 10 6 5 5 6 6 7 7 6 7 5 4 6 8 8 10 10 11 12 8 7 7 6 9 9 10 14 18 21 24 26 27 30 31 33
1 1 1 1 6 10 12 12 7 2 3 4 3 4 8 11 7 5 7 7 7 8 7 7 8 7 5 5 7 8 7 8 8 6 6 5 3 3 6 3 5 7 3 3 7 3 2 2 5 11 13 12 12 13 11 10 10 11 11 11 11 11 10 9 10 11 10 9 9 8 11 14 11 9 8 9 10 8 8 11 13 17 21 23 27 30 32 33
1 1 1 1 2 3 5 6 5 3 4 4 2 1 5 8 6 4 5 3 2 4 4 4 6 9 9 7 5 4 4 6 6 3 2 2 2 4 6 2 3 9 7 4 6 3 2 4 6 11 14 11 11 12 10 9 10 9 9 11 13 13 14 15 16 15 11 10 11 11 14 16 13 8 6 8 8 7 8 10 12 15 18 21 24 26 28 31
3 3 3 1 2 3 3 5 6 4 4 5 2 3 7 10 11 8 3 1 2 3 5 6 6 6 7 7 5 4 4 5 6 2 1 1 2 1 4 3 1 7 9 5 4 1 3 4 5 8 10 8 9 10 10 10 10 10 11 11 12 14 17 18 16 14 14 16 17 16 19 17 8 4 5 8 9 8 7 8 11 15 17 19 22 23 23 26
3 3 3 3 3 4 5 5 5 3 3 4 4 5 8 11 12 11 5 4 7 6 5 8 7 3 4 4 5 6 4 3 5 4 3 2 1 1 1 2 1 5 7 4 3 3 4 4 5 6 7 9 12 12 12 11 11 12 13 12 14 17 18 17 15 14 15 17 16 16 17 10 3 5 4 7 11 10 7 6 7 11 14 17 20 21 22 23
6 4 3 3 3 3 2 1 1 1 2 4 5 4 6 7 6 6 3 0 2 2 2 1 2 1 1 2 2 3 1 4 1 2 1 2 3 3 2 2 3 5 6 3 1 3 3 3 5 6 6 9 12 12 12 11 10 12 14 15 18 18 15 14 13 11 10 10 11 12 11 4 4 5 5 7 10 10 9 7 4 7 13 15 18 20 21 21
8 7 4 1 2 3 1 1 1 1 2 2 2 2 3 2 4 5 3 2 8 8 7 6 4 3 2 3 3 0 3 4 1 4 5 6 10 11 10 11 10 6 4 3 2 2 3 3 4 5 6 8 11 11 8 8 9 11 11 12 15 15 14 16 12 5 2 2 4 6 3 2 3 4 5 7 8 8 10 11 8 7 11 16 19 21 20 20
Wind_Direction
315 316 314 314 311 310 310 311 312 313 318 319 323 326 328 334 340 345 347 350 351 349 347 349 348 347 349 346 346 346 343 341 336 335 337 339 335 313 283 250 246 250 242 237 244 245 237 222 213 206 203 199 205 213 199 195 174 153 108 128 228 202 201 194 189 203 188 261 276 291 316 308 293 301 294 284 269 267 270 262 260 261 261 265 271 274 274 276
311 312 310 310 308 308 307 305 305 305 306 309 312 312 315 320 320 325 328 331 333 333 336 335 336 337 339 340 340 339 338 337 333 346 18 22 9 358 335 277 253 244 244 245 249 248 246 234 220 209 202 202 213 208 198 197 182 169 118 154 230 206 208 202 199 209 203 259 279 290 300 292 278 291 297 284 270 273 273 265 260 263 267 267 268 272 273 274
306 307 306 306 306 306 305 303 303 301 301 303 304 306 307 309 311 315 316 319 321 323 325 326 328 329 330 333 334 337 337 334 327 3 31 6 348 351 349 323 268 247 245 240 238 237 236 234 230 218 206 210 215 204 196 189 194 201 158 203 244 220 227 235 232 235 244 269 287 291 294 283 281 288 278 267 283 281 268 264 258 257 270 276 273 272 273 272
303 304 303 302 302 302 302 301 300 298 298 297 298 300 301 303 305 306 308 311 313 314 317 319 321 322 325 327 329 334 337 332 313 141 4 349 339 343 347 338 305 265 253 242 236 231 224 218 222 218 211 220 221 212 212 199 199 192 170 209 238 199 233 247 247 254 260 272 272 278 294 290 290 288 257 260 302 286 267 266 260 261 280 291 287 278 274 273
299 300 300 299 299 299 299 299 298 296 295 293 293 294 295 298 299 301 304 304 307 309 311 314 316 318 319 321 323 329 340 341 220 127 338 336 326 332 339 333 320 289 261 244 239 233 225 215 209 210 211 231 203 191 236 211 196 185 209 232 242 210 238 258 260 270 270 269 268 276 291 288 293 285 261 244 228 268 275 280 281 281 288 292 290 283 276 274
293 295 295 295 296 296 297 297 297 296 295 294 292 291 291 292 294 296 297 299 302 303 306 308 311 313 314 317 316 320 332 311 277 307 319 319 307 318 331 329 322 301 273 243 238 233 227 211 201 203 201 241 198 196 241 212 197 232 244 238 250 242 245 265 266 273 276 268 265 273 284 287 291 287 274 236 233 270 281 282 283 285 285 286 286 281 277 275
289 290 290 290 290 291 292 293 293 293 294 294 293 292 292 291 291 292 292 295 296 297 301 302 305 307 309 311 311 311 295 275 293 302 306 306 298 307 318 322 320 303 288 257 241 234 228 210 204 206 191 261 223 213 243 223 201 231 269 245 254 251 251 265 267 269 273 270 271 278 285 284 273 281 284 251 258 279 287 286 285 286 285 282 281 279 279 278
288 288 287 287 287 288 289 289 290 290 291 291 292 292 291 291 291 290 290 290 292 294 295 297 300 301 304 306 306 303 280 287 301 300 298 301 301 305 306 311 314 304 294 276 256 239 235 222 217 215 200 240 227 216 235 243 216 216 247 254 258 259 262 272 275 274 274 273 277 279 275 273 269 274 278 268 274 282 287 289 288 288 287 283 279 278 278 278
288 288 287 287 287 288 288 289 289 289 289 289 290 290 290 290 289 289 288 288 290 290 290 293 294 296 299 298 300 294 284 295 304 298 297 298 300 300 297 302 304 299 289 276 261 241 235 232 230 226 239 256 245 238 213 223 238 217 235 257 269 271 275 279 279 276 276 274 271 264 262 270 275 283 273 270 277 285 289 289 289 289 289 288 284 281 278 279
287 287 287 288 288 288 288 287 287 287 287 287 287 287 287 287 286 286 285 286 287 286 287 288 289 291 291 291 290 281 286 295 297 296 298 296 295 293 292 295 294 291 281 269 257 246 240 237 239 237 253 264 256 243 203 199 240 252 262 278 278 279 282 280 275 276 275 271 256 226 248 266 272 295 269 273 280 285 287 286 287 287 288 290 289 287 283 281
285 285 286 286 286 286 285 285 285 285 285 284 284 283 283 282 282 282 282 283 282 283 283 282 284 283 283 283 270 262 284 292 292 293 293 292 290 287 288 288 286 285 275 267 256 252 249 241 240 236 246 247 248 245 227 228 251 289 317 303 287 292 294 279 267 271 261 266 252 219 240 271 276 222 252 272 282 282 282 285 287 288 290 292 291 291 288 287
282 282 283 283 283 283 282 283 283 283 283 283 282 281 281 280 280 279 279 280 279 279 279 278 278 276 279 276 265 268 285 287 286 288 285 286 285 284 285 282 280 277 270 268 259 253 247 243 239 232 232 226 260 292 241 244 270 294 324 310 295 316 307 281 258 263 226 242 251 201 245 283 262 237 259 274 282 280 281 284 288 290 292 293 291 291 289 290
282 282 282 282 282 282 282 282 282 283 283 282 281 280 280 279 278 279 278 279 279 278 277 276 274 274 274 271 271 278 284 283 282 282 281 282 281 281 279 277 275 271 267 263 257 252 242 243 236 231 237 233 250 262 260 296 308 294 313 303 305 328 312 273 177 198 190 229 193 157 248 270 238 250 267 279 281 280 282 282 287 289 290 290 288 289 288 289
288 288 288 288 287 288 287 287 287 287 286 285 284 282 281 280 279 279 279 279 278 276 276 275 274 273 266 267 277 282 280 280 280 279 279 279 278 277 275 275 274 270 265 256 251 251 242 242 233 230 240 239 251 266 285 324 324 301 300 229 313 303 289 272 151 132 292 256 177 164 250 254 256 262 269 281 282 279 278 278 284 287 286 286 285 285 285 287
299 299 298 297 297 297 297 297 297 296 296 293 291 289 287 285 283 281 280 278 275 274 272 271 269 268 265 270 277 280 280 279 279 280 278 274 271 271 272 274 273 267 258 250 247 247 243 231 215 220 238 244 251 268 317 342 354 2 292 290 297 213 269 295 286 229 241 254 169 172 250 253 260 265 270 284 288 282 272 274 282 284 285 284 282 283 283 285
310 311 309 309 309 308 309 308 308 308 308 305 302 301 297 295 292 288 284 278 273 268 264 264 263 257 258 275 277 275 277 279 281 281 276 272 267 264 266 268 269 261 248 242 241 241 229 204 204 220 238 250 233 174 17 351 331 344 209 260 264 243 276 306 299 242 210 207 181 201 242 262 257 266 276 287 290 289 279 275 278 279 283 283 282 282 281 283
322 322 320 321 320 318 317 316 317 316 317 315 310 309 307 304 300 294 287 280 272 262 257 256 256 251 251 265 273 274 278 280 282 279 275 273 266 260 259 256 255 248 236 231 231 218 197 190 196 226 241 257 131 106 18 300 275 291 230 240 249 251 274 298 302 293 192 171 217 237 240 253 259 273 283 284 284 288 282 275 275 276 280 280 281 280 279 280
328 328 326 328 329 328 324 324 326 325 329 328 320 319 317 310 306 298 290 282 270 257 255 238 213 232 258 253 260 272 281 282 278 276 273 270 261 256 250 243 239 227 205 202 209 186 183 188 167 208 305 281 143 131 207 235 227 239 244 258 285 266 257 259 270 296 339 229 233 272 258 255 264 273 280 281 281 281 278 278 277 275 276 277 279 277 277 276
327 328 329 333 334 334 330 333 336 333 336 338 332 329 325 320 315 304 296 280 248 228 249 218 194 197 260 255 259 271 279 279 275 270 266 264 259 246 230 222 212 190 167 160 195 182 175 144 105 148 227 232 221 182 206 227 225 236 246 261 286 281 257 247 253 259 297 285 267 270 269 265 269 267 271 279 281 274 272 278 280 276 273 274 275 275 275 274
318 321 324 328 331 335 336 337 342 341 339 343 347 345 341 342 333 306 305 288 265 262 268 256 241 245 259 269 274 275 275 275 272 267 262 260 253 229 202 188 172 171 169 161 188 184 172 167 170 201 215 225 225 204 218 238 255 280 281 268 265 270 269 261 268 271 266 285 261 250 269 274 269 269 263 273 280 276 267 272 276 275 273 271 272 274 276 275
308 311 315 320 323 329 335 337 342 346 344 347 354 1 9 10 359 311 313 301 288 281 275 273 263 256 262 267 267 267 268 271 268 263 262 251 230 206 190 170 143 168 204 162 157 150 159 192 219 220 223 230 230 207 229 258 300 294 269 274 269 256 269 269 273 280 272 256 260 246 271 275 269 272 266 265 273 270 262 259 268 276 277 274 272 272 274 277
297 301 307 312 315 323 330 335 339 345 348 346 352 6 13 4 347 323 319 297 291 291 281 275 265 257 262 261 258 258 257 265 265 257 254 230 204 200 183 160 150 188 189 157 148 144 181 221 235 231 231 284 332 139 176 236 248 260 253 275 276 261 280 276 266 281 297 216 276 282 275 272 267 265 259 254 251 256 262 261 261 270 276 275 271 270 273 278
288 293 299 303 306 313 321 329 333 338 343 343 350 2 1 351 344 334 325 280 284 292 281 270 260 256 259 256 254 253 245 246 255 253 246 222 199 199 180 155 160 170 173 196 195 200 216 233 237 235 231 255 269 211 123 255 242 231 228 256 271 268 279 272 268 316 330 250 274 294 283 278 261 254 250 249 249 254 264 267 263 263 266 268 269 271 274 277
285 288 291 295 298 302 310 320 326 330 335 343 349 353 352 347 345 338 324 274 273 286 271 264 259 257 261 259 255 250 239 238 246 250 241 222 196 186 187 168 154 171 203 207 206 219 235 243 233 212 196 207 240 251 226 261 263 229 213 226 257 258 253 257 286 336 328 288 296 311 296 289 230 228 245 250 254 257 261 265 265 260 258 262 268 274 277 277
280 282 281 286 292 298 305 308 312 319 327 338 341 343 350 346 343 342 332 293 282 277 256 259 266 260 257 262 258 238 228 236 236 232 226 214 197 176 181 177 167 210 217 204 216 241 254 256 233 159 184 179 201 245 221 217 255 262 216 212 240 255 260 265 290 335 343 311 336 13 316 298 174 176 251 269 287 269 253 251 253 255 257 262 270 275 278 281
275 278 279 280 286 293 295 298 303 310 319 328 333 341 345 342 344 344 344 359 299 268 214 227 249 236 225 251 234 187 192 249 233 220 209 204 202 188 163 177 176 228 203 180 216 247 254 252 229 204 204 145 151 250 222 189 239 282 236 211 230 247 259 266 280 314 302 262 298 61 342 287 294 177 234 248 258 259 252 243 246 253 262 271 273 274 279 284
271 272 272 273 278 281 280 283 291 306 316 317 323 339 339 341 348 346 355 3 295 228 137 172 184 188 236 214 173 157 182 282 162 206 201 197 202 196 202 209 190 234 181 142 281 245 209 225 127 135 150 136 165 250 210 168 190 268 238 197 211 231 240 238 231 224 238 280 298 131 145 278 288 253 216 220 213 248 258 254 257 267 280 280 275 276 279 283
266 262 257 261 267 268 271 273 278 297 308 305 311 326 338 341 338 356 37 310 292 114 112 165 143 107 234 180 176 159 29 298 79 171 194 193 198 190 229 229 192 215 183 152 244 245 169 192 187 150 122 156 200 216 171 155 183 244 198 150 170 200 210 163 162 202 251 340 303 214 143 258 279 271 72 171 216 250 262 260 271 291 294 286 277 278 288 293
261 256 251 254 260 263 267 269 273 288 292 293 301 309 334 335 327 28 87 243 304 77 126 176 138 117 107 141 189 222 357 11 117 143 161 183 197 187 250 232 187 216 234 190 233 257 207 204 191 154 140 206 211 192 160 161 193 217 138 104 88 91 87 113 146 145 75 315 261 201 162 218 277 278 77 70 226 245 261 267 271 269 282 283 277 287 308 315
258 255 250 251 255 257 263 266 272 283 284 283 286 293 321 324 349 78 225 238 345 27 157 157 181 194 111 103 257 258 243 265 141 141 132 151 190 199 236 239 163 166 265 283 261 258 255 99 133 173 204 212 171 134 173 174 175 126 107 67 34 35 39 59 72 96 83 280 237 188 183 186 279 285 131 162 208 212 250 288 287 283 287 280 279 302 317 320
260 257 252 253 254 254 262 266 262 268 273 268 268 285 310 326 64 176 237 249 27 275 130 133 277 97 118 121 278 259 211 253 160 147 143 116 166 196 74 236 127 70 322 313 283 272 252 161 207 232 223 198 122 94 319 151 129 100 87 60 17 331 10 32 353 56 151 261 239 188 183 177 236 260 142 257 248 216 226 269 287 300 302 292 299 309 311 313
263 259 254 254 255 252 256 261 255 252 255 244 244 275 6 354 249 217 243 8 0 253 134 167 277 110 131 106 246 232 188 244 183 150 164 146 157 188 191 197 177 322 296 251 281 307 267 213 228 252 218 191 147 121 328 12 92 107 108 98 39 315 347 358 311 100 206 257 262 186 170 192 244 256 282 275 275 264 230 225 252 273 286 294 302 303 306 314
262 258 252 247 248 248 248 254 253 237 229 217 213 90 79 230 246 206 188 281 249 255 90 135 103 130 143 90 257 222 182 218 188 166 173 142 157 241 246 223 179 221 262 223 320 312 289 264 195 148 242 193 163 164 231 225 153 150 151 147 153 184 255 268 257 256 256 271 297 198 175 246 275 275 245 247 268 288 261 234 249 263 275 287 297 302 310 317
265 261 254 243 242 244 243 248 247 230 214 205 185 91 124 236 249 100 154 231 249 334 342 109 79 60 165 213 244 198 205 251 171 154 176 128 136 261 258 242 201 182 228 257 312 220 257 286 204 179 231 176 177 195 183 144 154 180 163 145 165 175 200 236 229 253 273 281 310 254 189 219 260 263 224 228 257 286 282 269 268 271 275 283 296 310 325 337
267 265 259 251 244 240 238 240 239 225 210 199 165 131 219 237 253 228 216 235 272 302 302 66 94 316 275 253 272 223 211 246 123 129 179 167 183 217 214 218 195 163 147 215 266 170 224 269 249 245 157 157 180 217 141 113 136 210 133 118 206 192 174 226 242 239 255 287 267 233 227 226 238 268 263 250 263 275 284 291 292 284 279 286 313 342 1 15
268 267 263 260 252 244 239 235 233 224 205 187 161 216 228 234 221 204 207 190 193 198 306 314 184 230 277 267 288 267 202 219 204 133 212 207 215 221 218 224 192 174 171 186 226 203 232 268 269 20 43 182 191 203 142 153 192 171 132 177 227 172 144 206 264 248 201 251 244 228 254 274 293 288 297 356 329 298 310 320 307 296 298 6 12 15 18 13
268 267 263 261 258 251 240 230 228 224 203 182 204 230 227 232 204 199 185 137 163 146 136 257 222 197 250 258 271 283 183 239 231 186 224 245 246 210 204 249 206 186 198 207 230 239 235 268 252 179 214 232 199 121 351 301 134 131 179 220 213 129 132 143 261 292 231 247 247 234 256 278 298 282 309 0 330 313 323 333 326 331 10 36 1 351 349 346
269 268 266 266 264 253 234 221 217 216 201 181 239 238 224 234 210 192 184 167 133 76 144 234 238 200 225 251 266 227 180 217 208 176 216 237 244 188 161 237 217 195 214 219 250 280 225 268 271 209 194 221 97 87 311 329 97 144 200 234 118 177 232 158 186 237 243 252 256 229 249 265 261 265 287 294 288 291 306 331 348 347 358 354 340 338 336 335
269 270 271 272 266 241 220 208 204 205 198 188 237 237 224 239 237 226 223 216 146 106 228 239 237 256 251 228 241 228 194 199 187 204 216 219 245 201 148 210 228 214 221 201 209 275 123 247 269 342 116 158 55 127 211 257 13 59 334 318 90 174 203 202 192 198 245 258 262 244 242 248 246 258 275 275 273 261 274 324 346 332 338 342 338 334 330 330
255 258 262 245 235 212 195 191 195 195 195 224 230 238 258 253 253 241 233 229 206 204 235 233 210 237 259 240 237 251 232 204 195 219 225 233 274 256 198 180 164 186 199 176 204 223 99 230 244 308 338 253 251 219 194 182 164 127 214 256 237 209 210 264 251 207 243 258 260 256 248 236 239 251 263 272 268 200 219 293 324 318 330 331 328 326 327 332
214 227 256 213 209 191 178 181 192 192 202 239 236 249 258 262 276 254 233 227 224 226 226 214 209 228 260 268 256 234 219 232 213 219 235 244 259 261 260 170 149 147 80 117 215 215 181 239 248 287 298 254 249 229 187 183 179 172 194 208 216 223 240 274 259 208 206 237 237 253 257 240 240 278 277 280 271 204 224 295 305 308 321 321 324 331 339 350
189 205 242 203 208 185 174 179 205 203 207 226 235 248 252 262 271 258 237 223 222 239 245 237 226 230 247 257 257 233 216 238 214 214 241 240 224 228 265 276 142 129 107 161 235 216 145 159 258 256 250 250 263 264 216 185 169 165 215 207 208 200 189 235 250 235 225 235 233 252 262 240 217 256 275 283 290 292 301 317 323 334 355 10 12 10 12 17
194 217 187 172 199 188 179 187 228 208 222 244 248 254 254 265 263 249 245 214 210 232 248 251 228 234 239 239 244 233 218 225 215 221 238 239 232 241 264 283 96 102 92 267 276 296 109 129 248 255 257 261 270 280 283 146 118 345 264 227 210 214 219 233 245 264 262 249 248 259 262 243 205 238 262 285 303 303 308 337 12 18 26 36 37 34 31 28
220 238 218 173 183 191 188 198 223 216 234 247 251 254 253 259 254 253 257 209 198 204 223 246 239 239 238 225 232 231 223 236 240 237 231 228 251 306 16 16 29 60 238 252 265 281 245 231 242 277 284 284 285 288 310 10 112 217 246 237 230 237 252 261 268 288 273 242 243 256 260 254 250 274 288 299 303 299 323 12 37 40 33 32 30 29 30 27
259 252 238 210 199 206 216 228 222 224 233 239 250 250 252 260 245 247 254 225 207 206 226 263 264 272 262 252 273 260 235 235 255 264 237 230 265 20 33 24 27 34 31 48 45 262 250 249 248 263 262 262 271 267 269 303 196 206 254 256 251 234 236 254 267 262 256 236 235 250 264 263 272 303 298 294 308 328 8 30 37 36 30 28 26 25 24 24
37 259 256 225 214 224 245 246 235 225 217 233 247 240 243 255 252 246 248 235 228 230 243 257 263 284 271 248 261 267 250 230 231 254 265 263 263 6 24 28 38 31 48 59 36 26 191 253 243 245 251 255 265 269 282 309 278 267 279 276 280 269 243 253 264 251 264 267 251 253 272 277 281 297 302 323 351 5 28 35 33 30 27 25 23 21 20 20
80 231 169 242 238 240 249 253 255 247 217 223 225 229 244 250 258 256 240 234 230 229 241 247 238 232 225 231 245 253 251 237 230 236 251 261 260 315 345 24 50 23 35 55 18 23 182 275 251 248 257 257 266 276 283 292 282 276 284 283 284 286 277 272 265 258 267 276 267 268 281 283 285 298 321 354 6 13 38 41 37 33 28 27 25 20 17 14
178 261 165 112 276 253 240 262 295 307 281 267 238 243 268 257 254 251 238 243 237 218 228 245 234 229 232 236 239 247 262 259 260 253 251 302 328 336 340 349 69 33 34 26 12 40 195 269 252 255 267 265 271 280 277 278 277 274 280 280 279 280 274 266 263 265 267 266 271 281 280 279 285 306 358 27 17 19 48 50 44 40 32 29 26 21 17 11
228 270 272 267 274 288 298 310 329 330 289 282 263 234 260 263 259 255 250 316 291 225 212 238 242 223 223 224 214 222 251 259 272 279 131 2 320 291 330 315 55 38 32 17 355 341 244 266 256 262 277 280 278 278 275 275 276 274 271 267 268 269 265 264 267 270 266 261 266 272 271 274 292 0 42 44 26 26 58 63 48 40 32 26 23 18 15 9
237 256 296 322 295 286 292 295 313 331 290 274 256 235 246 254 259 263 254 235 253 241 215 241 252 213 180 186 198 226 245 242 261 262 147 125 283 206 275 272 270 3 358 344 323 297 265 282 316 313 300 290 281 276 276 275 273 277 277 269 264 261 261 266 270 267 264 264 267 269 268 272 21 51 34 27 20 19 36 51 49 38 26 21 18 11 5 2
238 247 287 325 292 260 255 273 294 303 269 248 237 243 253 251 266 290 299 239 274 257 161 139 333 10 121 178 213 244 61 90 120 257 159 171 248 265 277 282 312 334 324 286 256 303 291 301 326 318 288 279 280 280 287 295 294 284 274 265 262 261 262 265 262 262 268 271 279 280 274 272 60 43 14 12 10 8 8 5 17 27 17 13 9 3 357 354
241 252 256 234 266 258 186 72 358 216 230 256 274 296 285 303 8 347 298 66 70 68 65 61 51 28 339 295 296 24 93 87 39 296 287 269 264 261 256 258 261 261 265 275 265 245 253 268 283 280 271 271 274 280 302 326 311 283 265 256 257 260 265 263 261 278 333 279 273 281 286 74 45 21 15 5 359 357 352 341 332 351 4 1 357 354 348 346